Voltar ao catálogo

NIMBUS 2 DEB

AtivoLEO
NORAD 24956·DEBRIS·🇺🇸 United States

Lançado May 15, 1966 de Vandenberg Space Force Base

Loading…

Próximas Passagens (próximas 24 horas)

TLE

AtualizadoSource: Space-Track

Época: Sep 13, 2026, 12:04 UTC

1 24956U 66040C   26256.50309610  .00001536  00000-0  19364-2 0  9997
2 24956 100.4688  93.6807 0041938 171.8157 244.4123 13.65399307951442

Acompanhe NIMBUS 2 DEB em tempo real com AllMySat

Download on the App Store